This is the latest recevied weather packets stored in our database for station/object SQ6IUS-13. If no packets are shown the sender has not sent any weather packets the latest 10 day(s).
| Time | Temp. | Humidity | Pressure | Rain* | Wind** | Luminosity | Snow |
|---|---|---|---|---|---|---|---|
| 1787986508 | 18.33° C | 100% | 1014.3 hPa | - | - | - | - |
| 1787985609 | 17.78° C | 100% | 1014.3 hPa | - | - | - | - |
| 1787984709 | 17.22° C | 100% | 1014.3 hPa | - | - | - | - |
| 1787983810 | 16.67° C | 100% | 1014.2 hPa | - | - | - | - |
| 1787982911 | 16.11° C | 100% | 1014.2 hPa | - | - | - | - |
| 1787982012 | 15.56° C | 100% | 1014.3 hPa | - | - | - | - |
| 1787981113 | 15.56° C | 100% | 1014.4 hPa | - | - | - | - |
| 1787980214 | 15.56° C | 100% | 1014.3 hPa | - | - | - | - |
| 1787979315 | 15.56° C | 100% | 1014.5 hPa | - | - | - | - |
| 1787978416 | 15.56° C | 100% | 1013.9 hPa | - | - | - | - |
| 1787977518 | 15.56° C | 100% | 1013.5 hPa | - | - | - | - |
| 1787976622 | 15.56° C | 100% | 1013.2 hPa | - | - | - | - |
| 1787975720 | 15.56° C | 100% | 1013.2 hPa | - | - | - | - |
| 1787974820 | 15.56° C | 100% | 1013.4 hPa | - | - | - | - |
| 1787973921 | 15.56° C | 100% | 1013.7 hPa | - | - | - | - |
| 1787973022 | 15.56° C | 100% | 1013.8 hPa | - | - | - | - |
| 1787972123 | 15.56° C | 100% | 1013.3 hPa | - | - | - | - |
| 1787971224 | 15.56° C | 100% | 1013.4 hPa | - | - | - | - |
| 1787970325 | 16.11° C | 100% | 1013.6 hPa | - | - | - | - |
| 1787969427 | 16.11° C | 100% | 1013.8 hPa | - | - | - | - |
| 1787968528 | 16.67° C | 100% | 1013.8 hPa | - | - | - | - |
| 1787967633 | 16.67° C | 100% | 1013.6 hPa | - | - | - | - |
| 1787966730 | 16.67° C | 100% | 1013.2 hPa | - | - | - | - |
| 1787965831 | 17.78° C | 100% | 1013.3 hPa | - | - | - | - |
| 1787964932 | 18.33° C | 100% | 1012.5 hPa | - | - | - | - |
* Rain since midnight (hover to see other rain measurements)
** Current wind speed in m/s (hover to see current wind gust speed)